User: anonymous   Login
Location: Unspecified
(0.0000°N, 0.0000°E)
Time: 14:50:08
(UTC+00:00)
Language:

LAPAN-TUBSAT - Orbit

View from above orbital plane
View from above orbital plane
View from above satellite
View from above satellite

Ground track
Ground track

The orbit data is extracted from the following two-line orbital elements,

1 29709U 07001A   17206.13702282 +.00000029 +00000-0 +10044-4 0  9990
2 29709 097.7066 179.5430 0012480 335.1787 024.8822 14.82065065569601
Epoch (UTC): 25 July 2017 03:17:18
Eccentricity: 0.0012480
inclination: 97.7066°
perigee height: 614 km
apogee height: 631 km
right ascension of ascending node: 179.5430°
argument of perigee: 335.1787°
revolutions per day: 14.82065065
mean anomaly at epoch: 24.8822°
orbit number at epoch: 56960

The dashed part of the orbit path shows where the satellite is in the earth's shadow,  

DLR